Location: Bishop's University Astronomical Observatory
(45.3661°N, 71.8475°W)
Time: 22:03:50
(UTC-04:00)

CZ-4C R/B - Visible Passes

Search period start: 29 July 2015 00:00
Search period end: 08 August 2015 00:00
Orbit: 766 x 1237 km, 63.4° (Epoch: 27 July)

Date Brightness Start Highest point End Pass type
(mag) Time Alt. Az. Time Alt. Az. Time Alt. Az.
29 Jul 2.4 02:35:23 44° S 02:36:58 61° ESE 02:42:56 10° NE visible
29 Jul 3.6 04:20:52 10° W 04:25:57 32° NW 04:31:31 10° NNE visible
30 Jul 3.7 01:22:43 22° ESE 01:22:43 22° ESE 01:27:04 10° ENE visible
30 Jul 2.4 03:07:54 32° WSW 03:10:31 66° NW 03:16:40 10° NE visible
31 Jul 2.5 01:55:12 48° SE 01:55:42 50° ESE 02:01:30 10° NE visible
31 Jul 3.4 03:40:22 16° W 03:44:28 36° NW 03:50:13 10° NNE visible
01 Aug 4.0 00:42:28 17° E 00:42:28 17° E 00:45:18 10° ENE visible
01 Aug 2.2 02:27:39 50° SW 02:29:10 79° NW 02:35:20 10° NE visible
01 Aug 4.1 04:14:09 10° WNW 04:18:48 23° NNW 04:23:47 10° NNE visible
02 Aug 2.9 01:14:53 40° ESE 01:14:53 40° ESE 01:20:03 10° NE visible
02 Aug 3.2 03:00:03 24° W 03:03:01 42° NW 03:08:54 10° NNE visible
02 Aug 4.5 04:49:26 10° NW 04:53:24 17° NNW 04:57:35 10° NNE visible
03 Aug 4.3 00:02:06 13° E 00:02:06 13° E 00:03:19 10° ENE visible
03 Aug 2.0 01:47:16 73° SSW 01:47:50 87° SE 01:53:59 10° NE visible
03 Aug 4.0 03:32:27 10° W 03:37:15 26° NNW 03:42:27 10° NNE visible
04 Aug 3.3 00:34:27 30° E 00:34:27 30° E 00:38:33 10° NE visible
04 Aug 2.9 02:19:36 35° W 02:21:35 49° NW 02:27:36 10° NNE visible
04 Aug 4.5 04:07:40 10° WNW 04:11:48 19° NNW 04:16:10 10° NNE visible
05 Aug 2.2 01:06:45 72° ESE 01:06:45 72° ESE 01:12:36 10° NE visible
05 Aug 3.9 02:51:54 15° W 02:55:44 29° NNW 03:01:07 10° NNE visible
05 Aug 4.7 04:42:53 10° NW 04:46:32 16° N 04:50:23 10° NNE visible
05 Aug 3.7 23:53:51 23° E 23:53:51 23° E 23:56:59 10° ENE visible
06 Aug 2.6 01:39:01 48° W 01:40:11 57° NW 01:46:17 10° NNE visible
06 Aug 4.5 03:25:54 10° WNW 03:30:12 20° NNW 03:34:47 10° NNE visible
07 Aug 2.5 00:26:05 54° E 00:26:05 54° E 00:31:13 10° NE visible
07 Aug 3.7 02:11:14 21° W 02:14:14 32° NW 02:19:49 10° NNE visible
07 Aug 4.7 04:01:11 10° NW 04:04:54 16° N 04:08:50 10° NNE visible
07 Aug 4.0 23:13:06 18° E 23:13:06 18° E 23:15:20 10° ENE visible
